This is the latest recevied weather packets stored in our database for station/object N0HEQ. If no packets are shown the sender has not sent any weather packets the latest 10 day(s).
| Time | Temp. | Humidity | Pressure | Rain* | Wind** | Luminosity | Snow |
|---|---|---|---|---|---|---|---|
| 1777940157 | 15° C | 42% | 1012.6 hPa | 0 mm | - | 12 W/m² | - |
| 1777939855 | 15° C | 42% | 1012.4 hPa | 0 mm | - | 14 W/m² | - |
| 1777939552 | 15.56° C | 42% | 1012.6 hPa | 0 mm | - | 17 W/m² | - |
| 1777939250 | 15.56° C | 41% | 1012.3 hPa | 0 mm | - | 18 W/m² | - |
| 1777938946 | 15.56° C | 40% | 1012.2 hPa | 0 mm | - | 19 W/m² | - |
| 1777938643 | 15.56° C | 39% | 1012 hPa | 0 mm | - | 20 W/m² | - |
| 1777938340 | 16.11° C | 38% | 1011.6 hPa | 0 mm | - | 27 W/m² | - |
| 1777938037 | 16.11° C | 37% | 1011.6 hPa | 0 mm | - | 40 W/m² | - |
| 1777937732 | 16.11° C | 36% | 1011.6 hPa | 0 mm | - | 45 W/m² | - |
| 1777937429 | 16.67° C | 36% | 1011.5 hPa | 0 mm | - | 35 W/m² | - |
| 1777937126 | 16.67° C | 35% | 1011.5 hPa | 0 mm | - | 48 W/m² | - |
| 1777936824 | 16.67° C | 35% | 1011.1 hPa | 0 mm | - | 45 W/m² | - |
| 1777936520 | 16.67° C | 35% | 1011.5 hPa | 0 mm | - | 28 W/m² | - |
| 1777936216 | 16.67° C | 35% | 1011.5 hPa | 0 mm | - | 34 W/m² | - |
| 1777935913 | 17.22° C | 34% | 1011.1 hPa | 0 mm | - | 32 W/m² | - |
| 1777935612 | 17.22° C | 33% | 1011.1 hPa | 0 mm | - | 44 W/m² | - |
| 1777935308 | 17.78° C | 32% | 1011 hPa | 0 mm | - | 45 W/m² | - |
| 1777935005 | 17.78° C | 32% | 1010.9 hPa | 0 mm | - | 57 W/m² | - |
| 1777934702 | 17.78° C | 32% | 1010.9 hPa | 0 mm | - | 59 W/m² | - |
| 1777934399 | 17.78° C | 31% | 1010.8 hPa | 0 mm | - | 60 W/m² | - |
| 1777934095 | 17.78° C | 31% | 1011.1 hPa | 0 mm | - | 63 W/m² | - |
| 1777933791 | 17.78° C | 31% | 1010.6 hPa | 0 mm | - | 76 W/m² | - |
| 1777933489 | 18.33° C | 30% | 1010.7 hPa | 0 mm | - | 87 W/m² | - |
| 1777933186 | 18.33° C | 30% | 1010.8 hPa | 0 mm | - | 80 W/m² | - |
| 1777932883 | 18.33° C | 30% | 1010.8 hPa | 0 mm | - | 100 W/m² | - |
* Rain latest hour (hover to see other rain measurements)
** Current wind speed in m/s (hover to see current wind gust speed)